Location: Newark
(37.8333°N, 119.5000°W)
Time: 11:19:35
(UTC+00:00)

Tiros 1 despin weight - Pass Details

Date: 19 August 2019
Orbit: 593 x 643 km, 48.2° (Epoch: 20 October)

Event Time Altitude Azimuth Distance (km) Brightness Sun altitude
Rises 14:19:31 0° 304° (WNW) 2,903 ? 11.3°
Reaches altitude 10° 14:21:50 10° 305° (NW) 2,002 ? 11.7°
Maximum altitude 14:26:27 81° 34° (NNE) 644 ? 12.6°
Drops below altitude 10° 14:31:07 10° 121° (ESE) 2,019 ? 13.5°
Sets 14:33:27 0° 122° (ESE) 2,930 ? 14.0°
